Tracking 25707 objects as of 29-Jun-2022
HD Live streaming from Space Station
objects crossing your sky now

DMSP 5D-2 F13 DEB

Track DMSP 5D-2 F13 DEB now!
10-day predictions


NORAD ID: 40500
Int'l Code: 1995-015CP
Perigee: 805.8 km
Apogee: 850.9 km
Inclination: 98.8 °
Period: 101.3 minutes
Semi major axis: 7199 km
RCS: Unknown
Launch date: March 24, 1995
Source: United States (US)
Launch site: AIR FORCE WESTERN TEST RANGE (AFWTR)

Note: This is SATELLITE DEBRIS
aabbcc
Your satellite tracking list
Your tracking list is empty




NASA's NSSDC Master Catalog

Two Line Element Set (TLE):
1 40500U 95015CP  22179.27845082  .00003178  00000-0  14725-2 0  9996
2 40500  98.8186 203.1356 0031310 157.5038 202.7519 14.21230664376896
Source of the keplerian elements: AFSPC